Home > Weather > São Luis > Past weeks

Flag for Brazil Past Weather in São Luis, Maranhão, Brazil — Yesterday and Last 2 Weeks

Now
88 °F

Partly sunny.


Feels Like: 93 °F
Forecast: 79 / 87 °F
Wind: 10 mph from East

Location: Sao Luiz Aeroporto

Current Time: Aug 24, 2016 at 3:21:38 PM

Latest Report: Aug 24, 2016 at 3:00 PM


Visibility: N/A

Pressure: 29.86 "Hg

Humidity: 55%

Dew Point: 70 °F

Location of São LuisLocation

Past Weather in São Luis — Graph

°F

São Luis Temperature Yesterday

Maximum temperature yesterday: 90 °F (at 1:00 PM)
Minimum temperature yesterday: 79 °F (at 4:00 AM)
Average temperature yesterday: 83 °F

High & Low Weather Summary for the Past Weeks

 TemperatureHumidityPressure
High91 °F (Aug 20, 2:00 PM)83% (Aug 20, 7:00 AM)29.98 "Hg (Aug 20, 7:00 AM)
Low77 °F (Aug 14, 3:00 AM)46% (Aug 14, 2:00 PM)29.83 "Hg (Aug 15, 3:00 PM)
Average82 °F68%29.91 "Hg
* Reported Aug 9 2:00 PM — Aug 24 2:00 PM, São Luis, Weather by CustomWeather, © 2016

Note: Actual official high and low records may vary slightly from our data, if they occured in-between our weather recording intervals... More about our weather records

Advertising

São Luis Weather History for the Previous 24 Hours

Scroll right to see more
 ConditionsComfort  
Time TempWeatherWind HumidityBarometerVisibility
2:00 PM
Wed, Aug 24
90 °FPartly sunny.15 mph49%29.89 "HgN/A
1:00 PM90 °FPartly sunny.15 mph52%29.92 "HgN/A
12:00 PM88 °FPartly sunny.15 mph59%29.95 "HgN/A
11:00 AM88 °FPartly sunny.15 mph55%29.98 "HgN/A
10:00 AM86 °FPartly sunny.18 mph62%29.98 "HgN/A
9:00 AM82 °FPartly sunny.20 mph70%29.98 "HgN/A
8:00 AM82 °FScattered clouds.14 mph70%29.98 "HgN/A
7:00 AM81 °FScattered clouds.14 mph74%29.95 "HgN/A
6:00 AM79 °FPartly sunny.9 mph79%29.95 "HgN/A
5:00 AM79 °FPassing clouds.7 mph79%29.92 "HgN/A
4:00 AM79 °FPassing clouds.9 mph79%29.89 "HgN/A
3:00 AM79 °FPassing clouds.7 mph79%29.89 "HgN/A
2:00 AM81 °FPassing clouds.12 mph74%29.92 "HgN/A
1:00 AM81 °FPassing clouds.7 mph74%29.92 "HgN/A
12:00 AM81 °FPassing clouds.16 mph74%29.95 "HgN/A
11:00 PM
Tue, Aug 23
81 °FClear.10 mph74%29.95 "Hg10 mi
10:00 PM81 °FClear.10 mph74%29.95 "Hg10 mi
9:00 PM81 °FClear.13 mph74%29.95 "Hg10 mi
8:00 PM81 °FPassing clouds.14 mph74%29.92 "HgN/A
7:00 PM81 °FPassing clouds.10 mph74%29.89 "HgN/A
6:00 PM84 °FPassing clouds.10 mph62%29.89 "HgN/A
5:00 PM86 °FScattered clouds.13 mph62%29.86 "HgN/A
4:00 PM88 °FScattered clouds.15 mph59%29.86 "HgN/A
3:00 PM88 °FScattered clouds.13 mph59%29.86 "HgN/A
Weather by CustomWeather, © 2016

See weather overviewHow to use our weather pages